{"data":{"norad_id":65429,"intl_designator":"2025-192AB","name":"STARLINK-35014","alt_names":[],"object_type":"PAYLOAD","status":"ACTIVE","operator":null,"country":"US","launch_date":"2025-08-31","launch_site_code":"AFETR","launch_vehicle":null,"mission":null,"orbit_class":"UNKNOWN","rcs_meters":null,"size_class":null,"mass_kg":null,"dimensions":null,"purposes":["comms"],"wikipedia_slug":null,"has_3d_model":false,"image_url":null,"decayed_at":null,"tle_current":{"epoch":"2026-09-20T22:06:06.624000Z","epoch_age_seconds":78526,"freshness":"FRESH","line1":"1 65429U 25192AB  26263.92091000  .00011497  00000+0  35069-3 0  9992","line2":"2 65429  53.1595  43.4852 0001081  82.4205 277.6921 15.34417493 59305","mean_motion":15.34417493,"eccentricity":0.0001081,"inclination_deg":53.1595,"raan_deg":43.4852,"arg_perigee_deg":82.4205,"mean_anomaly_deg":277.6921,"bstar":0.00035069,"rev_number":5930,"period_min":93.846688177714,"perigee_km":461.91175860898,"apogee_km":463.39073702816,"semimajor_km":6840.7882478186,"source":"CELESTRAK","updated_at":"2026-09-21T09:00:35.607542Z"}}}